[[{"header":{"parameterUnit":"m.s-1","parameterCategory":1,"la1":30.2991,"la2":30.254,"lo1":-89.0895,"lo2":-89.0444,"dy":0.0017,"dx":0.0017,"nx":28,"ny":28,"refTime":"2025-01-25T09:00:00:Z","depth":0,"parameterNumber":2,"parameterNumberName":"U-component_of_WINDS"},"data":[0,0,0,0,0,0,0,0,0,0,0,0,0,0,0,0,0,0,0,0,0,0,0,0,0,0,0,0,0,0,0,0,0,0,0,0,0,0,0,0,0,0,0,0,0,0,0,0,0,0,0,0,0,0,0,0,0,0,-1.9091,-1.9091,0,-1.9106,-1.9106,-1.9106,-1.9046,-1.9045,-1.9043,-1.9041,-1.9058,-1.906,-1.9062,0,0,0,0,0,0,0,0,0,0,0,0,0,-1.901,-1.9012,-1.9091,-1.9091,-1.9091,-1.9106,-1.9106,-1.9106,-1.9047,-1.9045,-1.9042,-1.904,-1.9058,-1.906,-1.9063,0,0,0,0,0,0,0,0,0,0,0,0,0,-1.9038,-1.9013,-1.9091,-1.9063,-1.9061,-1.9106,-1.9106,-1.9106,-1.9047,-1.9044,-1.9042,-1.9039,-1.9057,-1.906,-1.9063,-1.9136,0,0,-1.9073,-1.9074,0,0,0,0,0,0,0,0,-1.9036,-1.9041,-1.9067,-1.9065,-1.9063,-1.9071,-1.9084,-1.9116,-1.9048,-1.9052,-1.9041,-1.9038,-1.9065,-1.9067,-1.9076,-1.9137,-1.9137,-1.9073,-1.9075,-1.9076,-1.9077,0,0,0,0,0,0,0,-1.9034,-1.904,-1.9097,-1.9067,-1.9065,-1.905,-1.9051,-1.909,-1.9074,-1.9052,-1.9047,-1.905,-1.9063,-1.9073,-1.9076,-1.9138,-1.9073,-1.9076,-1.9078,-1.9079,-1.9257,-1.926,0,0,0,0,0,0,-1.9036,-1.9038,-1.9096,-1.9097,-1.9042,-1.9054,-1.9055,-1.9071,-1.9073,-1.9071,-1.9052,-1.9047,-1.9069,-1.9072,-1.9076,-1.9161,-1.9076,-1.9079,-1.9081,-1.9254,-1.9258,-1.9261,0,0,0,0,0,0,-1.9034,-1.9042,-1.9096,-1.9067,-1.9072,-1.9058,-1.9077,-1.9073,-1.9083,-1.9073,-1.907,-1.9065,-1.9067,-1.9072,-1.9121,-1.916,-1.9081,-1.9083,-1.9251,-1.9255,-1.9259,-1.9331,0,0,0,0,0,0,-1.9032,-1.9042,-1.9069,-1.9068,-1.9074,-1.914,-1.908,-1.9075,-1.9088,-1.9082,-1.9085,-1.9083,-1.9065,-1.9117,-1.9124,-1.9163,-1.9086,-1.9247,-1.9253,-1.9258,-1.9325,-1.9337,-1.9347,0,0,0,0,0,-1.903,-1.909,-1.9071,-1.9078,-1.9108,-1.9143,-1.9146,-1.9125,-1.9092,-1.9119,-1.9113,-1.9083,-1.9155,-1.9122,-1.913,-1.9171,-1.9245,-1.9251,-1.9257,-1.932,-1.9335,-1.9347,0,0,0,0,0,0,-1.9097,-1.9089,-1.9068,-1.9129,-1.9137,-1.9133,-1.9167,-1.9142,-1.9159,-1.9153,-1.9125,-1.9127,-1.918,-1.918,-1.9144,-1.9241,-1.9194,-1.9202,-1.9239,-1.9253,-1.9264,-1.9263,-1.9089,0,0,0,0,0,-1.9119,-1.9147,-1.9138,-1.9193,-1.9198,-1.9182,-1.9196,-1.9178,-1.9186,-1.9189,-1.9186,-1.9195,-1.9219,-1.9236,-1.9258,-1.9324,-1.9324,-1.9356,-1.9368,-1.9377,-1.9384,-1.9418,-1.9432,-1.9282,-1.9282,-1.9282,0,0,-1.9165,-1.9164,-1.9183,-1.9207,-1.9211,-1.924,-1.9185,-1.9219,-1.9241,-1.9194,-1.924,-1.9238,-1.9246,-1.9304,-1.9329,-1.9305,-1.9426,-1.9385,-1.9392,-1.9395,-1.9426,-1.944,-1.9453,-1.9286,-1.9285,-1.9285,0,0,-1.9263,-1.9265,-1.931,-1.9315,-1.9321,-1.931,-1.932,-1.9319,-1.9316,-1.9361,-1.9326,-1.9352,-1.9395,-1.9401,-1.941,-1.9509,-1.9481,-1.9517,-1.9576,-1.9609,-1.9621,-1.9631,-1.9666,-1.9678,-1.9524,-1.9525,-1.9525,0,-1.9319,-1.9362,-1.9337,-1.9373,-1.9384,-1.9341,-1.9387,-1.9393,-1.9406,-1.9415,-1.9388,-1.944,-1.9442,-1.95,-1.9524,-1.9533,-1.9544,-1.9517,-1.9621,-1.9631,-1.9641,-1.9673,-1.9686,-1.9529,-1.9528,-1.9528,-1.9527,0,-1.943,-1.9461,-1.9496,-1.9509,-1.9524,-1.9565,-1.9545,-1.9563,-1.9544,-1.9535,-1.9581,-1.9582,-1.9603,-1.9616,-1.9598,-1.9671,-1.9656,-1.9626,-1.9578,-1.966,-1.969,-1.9702,-1.9535,-1.9533,-1.9532,-1.9531,0,0,-1.9573,-1.9569,-1.9583,-1.9588,-1.959,-1.9613,-1.9652,-1.9671,-1.9687,-1.9697,-1.9728,-1.9765,-1.9736,-1.9746,-1.9729,-1.9758,-1.9835,-1.9724,-1.9723,-1.9744,-1.9914,-1.9936,-1.9951,-1.9816,-1.9818,-1.982,-1.9913,0,-1.9669,-1.9733,-1.971,-1.9776,-1.9803,-1.9763,-1.9796,-1.9801,-1.9794,-1.9816,-1.9807,-1.9833,-1.9794,-1.98,-1.9827,-1.982,-1.9868,-1.9813,-1.9845,-1.9846,-1.9844,-1.9967,-1.9991,-2.0079,-1.9925,-1.9927,-1.9928,0,-1.9789,-1.9803,-1.9871,-1.9868,-1.9878,-1.9908,-1.9923,-1.9945,-1.995,-1.9942,-1.9953,-1.9928,-1.9965,-1.9917,-1.9967,-1.993,-1.9942,-1.994,-1.9943,-1.9945,-1.9892,-1.9972,-2.0106,-2.0119,-1.9946,-1.9945,-1.9944,0,-1.9885,-1.9921,-1.9966,-1.9971,-1.9969,-1.999,-1.999,-1.9992,-2.0005,-2.0018,-2.0026,-2.0044,-2.0054,-2.0068,-2.0049,-2.0016,-2.0101,-2.0052,-2.0096,-2.0096,-2.0116,-2.0115,-2.0253,-2.0124,-2.0124,-2.0124,-2.0123,0,-1.9995,-2.0038,-2.0009,-2.0036,-2.0083,-2.0056,-2.0104,-2.0099,-2.0101,-2.0127,-2.0093,-2.0118,-2.0091,-2.0114,-2.0099,-2.0142,-2.0147,-2.0142,-2.0138,-2.0145,-2.0145,-2.0152,-2.0145,-2.0127,-2.0126,-2.0126,-2.0125,0,-2.011,-2.0092,-2.0138,-2.0131,-2.0131,-2.0165,-2.0159,-2.0184,-2.0174,-2.0207,-2.0213,-2.0197,-2.0222,-2.0204,-2.0229,-2.0218,-2.0275,-2.0262,-2.0273,-2.027,-2.0314,-2.031,-2.0461,-2.0479,-2.0339,-2.034,-2.0341,0,-2.0181,-2.0213,-2.0209,-2.0223,-2.0225,-2.0249,-2.0261,-2.0235,-2.0249,-2.0256,-2.028,-2.0302,-2.0318,-2.0359,-2.0349,-2.0368,-2.0355,-2.0407,-2.0358,-2.0363,-2.0355,-2.0353,-2.0356,-2.0417,-2.0418,-2.042,-2.0421,0,-2.0308,-2.0297,-2.0316,-2.0331,-2.0346,-2.0356,-2.0365,-2.0379,-2.0352,-2.037,-2.0394,-2.0406,-2.043,-2.0452,-2.0467,-2.0467,-2.044,-2.0436,-2.0447,-2.0455,-2.046,-2.0457,-2.03,-2.0433,-2.0432,-2.0431,-2.043,-2.043,-2.0403,-2.0429,-2.0429,-2.045,-2.0453,-2.0461,-2.0484,-2.0476,-2.0495,-2.0512,-2.0496,-2.0525,-2.0527,-2.0544,-2.0547,-2.0569,-2.0548,-2.0564,-2.0568,-2.0572,-2.0578,-2.0456,-2.0572,-2.0572,-2.0571,-2.0571,-2.0571,0,-2.0528,-2.0525,-2.0545,-2.0557,-2.0573,-2.0545,-2.0552,-2.0568,-2.0593,-2.0597,-2.0613,-2.064,-2.066,-2.0652,-2.067,-2.0689,-2.0677,-2.0694,-2.0693,-2.0693,-2.0597,-2.0585,-2.0704,-2.0704,-2.0704,-2.0704,-2.0704,-2.0704,-2.0595,-2.0636,-2.0625,-2.0668,-2.0665,-2.0692,-2.0699,-2.0706,-2.0709,-2.074,-2.0756,-2.075,-2.0749,-2.0766,-2.0783,-2.078,-2.0788,-2.081,-2.0802,-2.0713,-2.07,-2.0687,-2.0676,-2.0812,-2.0812,-2.0897,-2.0897,-2.0898]},{"header":{"parameterUnit":"m.s-1","parameterCategory":1,"la1":30.2991,"la2":30.254,"lo1":-89.0895,"lo2":-89.0444,"dy":0.0017,"dx":0.0017,"nx":28,"ny":28,"refTime":"2025-01-25T09:00:00:Z","depth":0,"parameterNumber":3,"parameterNumberName":"V-component_of_WINDS"},"data":[0,0,0,0,0,0,0,0,0,0,0,0,0,0,0,0,0,0,0,0,0,0,0,0,0,0,0,0,0,0,0,0,0,0,0,0,0,0,0,0,0,0,0,0,0,0,0,0,0,0,0,0,0,0,0,0,0,0,-2.4624,-2.4624,0,-2.4694,-2.4695,-2.4696,-2.4673,-2.4671,-2.4669,-2.4668,-2.4738,-2.4742,-2.4745,0,0,0,0,0,0,0,0,0,0,0,0,0,-2.4465,-2.4468,-2.4623,-2.4624,-2.4625,-2.4694,-2.4695,-2.4696,-2.4673,-2.4671,-2.4669,-2.4667,-2.4737,-2.4741,-2.4745,0,0,0,0,0,0,0,0,0,0,0,0,0,-2.4535,-2.4469,-2.4623,-2.4622,-2.4622,-2.4694,-2.4695,-2.4697,-2.4673,-2.4671,-2.4669,-2.4666,-2.4736,-2.4741,-2.4746,-2.4822,0,0,-2.4761,-2.4763,0,0,0,0,0,0,0,0,-2.4531,-2.454,-2.4621,-2.4622,-2.4623,-2.4672,-2.4665,-2.4739,-2.4674,-2.4654,-2.4668,-2.4665,-2.4718,-2.4724,-2.4743,-2.4826,-2.4829,-2.4761,-2.4764,-2.4766,-2.4768,0,0,0,0,0,0,0,-2.4526,-2.4537,-2.4651,-2.4622,-2.4623,-2.4617,-2.4624,-2.4679,-2.4698,-2.4655,-2.4654,-2.4663,-2.4718,-2.4738,-2.4744,-2.483,-2.4761,-2.4766,-2.4769,-2.4771,-2.4978,-2.498,0,0,0,0,0,0,-2.4521,-2.4533,-2.4649,-2.4654,-2.457,-2.4622,-2.463,-2.4659,-2.4697,-2.4701,-2.4665,-2.4661,-2.4731,-2.4738,-2.4747,-2.4838,-2.4766,-2.4771,-2.4774,-2.4975,-2.4978,-2.4981,0,0,0,0,0,0,-2.4518,-2.4531,-2.4646,-2.4593,-2.4607,-2.4627,-2.4659,-2.4661,-2.4681,-2.4704,-2.4707,-2.4682,-2.4729,-2.474,-2.4804,-2.484,-2.4773,-2.4778,-2.4972,-2.4976,-2.498,-2.5022,0,0,0,0,0,0,-2.4513,-2.453,-2.456,-2.4594,-2.461,-2.4703,-2.4662,-2.4664,-2.469,-2.4686,-2.4721,-2.4724,-2.4728,-2.4796,-2.4809,-2.4846,-2.4782,-2.4969,-2.4974,-2.4979,-2.5017,-2.5027,-2.5035,0,0,0,0,0,-2.4508,-2.4569,-2.4562,-2.4576,-2.4648,-2.4705,-2.4714,-2.4718,-2.4693,-2.4723,-2.4738,-2.4723,-2.4834,-2.4803,-2.4817,-2.4856,-2.4967,-2.4973,-2.4978,-2.5013,-2.5025,-2.5035,0,0,0,0,0,0,-2.4539,-2.4574,-2.4566,-2.4641,-2.467,-2.4701,-2.4739,-2.473,-2.4767,-2.4762,-2.4764,-2.4772,-2.4838,-2.4853,-2.4818,-2.4931,-2.4897,-2.4905,-2.4919,-2.493,-2.4938,-2.4933,-2.4786,0,0,0,0,0,-2.4554,-2.4599,-2.4626,-2.4689,-2.4705,-2.4719,-2.4744,-2.4745,-2.4775,-2.4787,-2.4807,-2.4836,-2.4877,-2.4905,-2.4944,-2.502,-2.5026,-2.5053,-2.5062,-2.5069,-2.5076,-2.5116,-2.5128,-2.5,-2.5,-2.5,0,0,-2.4587,-2.4611,-2.4639,-2.4696,-2.4719,-2.4764,-2.473,-2.4779,-2.4812,-2.4794,-2.4856,-2.4871,-2.4904,-2.4974,-2.5006,-2.4989,-2.5113,-2.5076,-2.5082,-2.5085,-2.5123,-2.5136,-2.5146,-2.5004,-2.5003,-2.5002,0,0,-2.4669,-2.4692,-2.4747,-2.4771,-2.4806,-2.4816,-2.4829,-2.4861,-2.4871,-2.4933,-2.492,-2.4959,-2.5031,-2.5055,-2.5076,-2.5167,-2.5155,-2.5179,-2.5224,-2.5264,-2.5274,-2.5283,-2.5314,-2.5326,-2.5187,-2.5187,-2.5187,0,-2.4704,-2.4772,-2.4776,-2.4826,-2.4851,-2.4838,-2.4893,-2.4915,-2.4962,-2.4979,-2.496,-2.5049,-2.507,-2.5145,-2.5167,-2.5185,-2.5199,-2.5175,-2.5272,-2.5281,-2.529,-2.532,-2.5332,-2.519,-2.5189,-2.5189,-2.5189,0,-2.4814,-2.4861,-2.4901,-2.4947,-2.4976,-2.5028,-2.5039,-2.5068,-2.5066,-2.5077,-2.514,-2.5165,-2.5209,-2.5227,-2.5225,-2.5301,-2.5289,-2.5271,-2.5236,-2.5305,-2.5333,-2.5344,-2.5193,-2.5192,-2.5192,-2.5191,0,0,-2.4917,-2.4964,-2.4979,-2.4999,-2.5037,-2.5073,-2.5124,-2.5168,-2.5193,-2.5225,-2.5267,-2.5328,-2.5311,-2.5335,-2.5336,-2.537,-2.544,-2.5348,-2.5349,-2.5363,-2.5524,-2.5537,-2.555,-2.5432,-2.5434,-2.5436,-2.5521,0,-2.5002,-2.5093,-2.5097,-2.5179,-2.5222,-2.521,-2.5255,-2.5282,-2.5294,-2.5331,-2.5344,-2.5386,-2.5362,-2.5376,-2.541,-2.5424,-2.5472,-2.5418,-2.547,-2.5472,-2.5462,-2.5565,-2.5579,-2.5658,-2.5532,-2.5534,-2.5536,0,-2.5113,-2.5149,-2.5235,-2.5267,-2.5285,-2.5325,-2.5365,-2.5401,-2.5432,-2.5438,-2.5465,-2.546,-2.5512,-2.5476,-2.5546,-2.5509,-2.5531,-2.5541,-2.5544,-2.5548,-2.5507,-2.5572,-2.5684,-2.5695,-2.5553,-2.5552,-2.555,0,-2.5178,-2.5249,-2.5309,-2.5327,-2.5365,-2.5394,-2.5411,-2.5439,-2.5465,-2.55,-2.5516,-2.5556,-2.5578,-2.5608,-2.5614,-2.5588,-2.5684,-2.5649,-2.569,-2.569,-2.571,-2.5709,-2.5827,-2.5726,-2.5725,-2.5725,-2.5725,0,-2.5272,-2.5325,-2.5339,-2.5376,-2.5435,-2.544,-2.5497,-2.5512,-2.5538,-2.5577,-2.5569,-2.5606,-2.5612,-2.565,-2.5655,-2.5712,-2.5722,-2.5727,-2.5728,-2.5728,-2.5727,-2.5741,-2.5735,-2.5728,-2.5728,-2.5727,-2.5727,0,-2.5355,-2.5367,-2.5432,-2.5463,-2.5472,-2.5514,-2.554,-2.5575,-2.5586,-2.5635,-2.5647,-2.5664,-2.5708,-2.5717,-2.5769,-2.5773,-2.584,-2.5835,-2.583,-2.5829,-2.5869,-2.5865,-2.6,-2.6018,-2.5906,-2.5907,-2.5908,0,-2.5413,-2.5454,-2.5489,-2.5515,-2.5534,-2.5576,-2.5602,-2.5608,-2.5635,-2.5673,-2.5704,-2.5747,-2.5782,-2.5853,-2.5869,-2.5909,-2.5905,-2.5949,-2.591,-2.5909,-2.5904,-2.5902,-2.5905,-2.5956,-2.5958,-2.5959,-2.5959,0,-2.5516,-2.5519,-2.5558,-2.5599,-2.563,-2.5662,-2.5693,-2.5714,-2.5724,-2.5755,-2.5801,-2.5828,-2.5881,-2.5924,-2.5964,-2.598,-2.5971,-2.5972,-2.5983,-2.5983,-2.5978,-2.598,-2.5849,-2.5968,-2.5967,-2.5967,-2.5966,-2.5966,-2.5588,-2.5623,-2.5653,-2.5696,-2.572,-2.5748,-2.5783,-2.5798,-2.5836,-2.5881,-2.5881,-2.5931,-2.5959,-2.6012,-2.6031,-2.6069,-2.6055,-2.6072,-2.6076,-2.608,-2.6083,-2.5972,-2.6076,-2.6076,-2.6076,-2.6076,-2.6076,0,-2.5689,-2.5708,-2.5747,-2.579,-2.5824,-2.5813,-2.5846,-2.5875,-2.5919,-2.5947,-2.5981,-2.6033,-2.6075,-2.6094,-2.6135,-2.6162,-2.6158,-2.6172,-2.617,-2.6173,-2.6094,-2.608,-2.6174,-2.6174,-2.6174,-2.6174,-2.6174,-2.6174,-2.5745,-2.5804,-2.5811,-2.5882,-2.59,-2.5949,-2.5968,-2.5994,-2.6017,-2.6075,-2.611,-2.6122,-2.6147,-2.6189,-2.6226,-2.6231,-2.6246,-2.6262,-2.6264,-2.6189,-2.6179,-2.617,-2.6156,-2.6265,-2.6265,-2.634,-2.6341,-2.6342]}]]